Location: Cortos
(40.7190°N, 4.5893°W)
Time: 04:06:53
(UTC+00:00)

Cosmos 2237 Rocket - Pass Details

Date: 05 July 2020
Orbit: 835 x 850 km, 71.0° (Epoch: 11 August)

Event Time Altitude Azimuth Distance (km) Brightness Sun altitude
Exits shadow 22:14:33 37° 133° (SE) 1,297 2.7 -19.9°
Maximum altitude 22:15:39 41° 106° (ESE) 1,217 2.7 -20.0°
Drops below altitude 10° 22:20:56 10° 38° (NE) 2,483 4.9 -20.5°
Sets 22:23:31 0° 31° (NNE) 3,423 5.8 -20.8°
